Wind_Speed
47 45 44 43 43 43 42 41 41 41 42 43 44 45 44 44 43 43 43 42 43 43 44 44 44 43 42 42 42 42 43 44 45 46 48 49 50 51 51 50 51 49
49 46 44 43 43 44 43 42 41 41 42 42 44 44 44 44 43 42 42 42 43 44 45 46 46 44 44 43 43 43 44 46 47 48 50 50 51 51 51 51 51 46
50 48 45 43 42 43 44 43 42 42 41 41 41 42 43 43 43 43 43 43 44 45 46 46 45 45 45 44 44 45 46 47 49 49 50 50 51 51 52 52 48 43
52 50 47 45 43 43 44 44 43 43 42 41 41 41 42 43 44 44 44 45 46 48 47 46 46 46 45 45 46 46 47 49 50 50 50 52 53 53 53 50 45 43
53 52 49 47 45 44 45 44 44 44 43 43 43 43 44 45 46 47 48 49 50 51 49 48 47 47 47 47 47 48 49 50 52 53 54 55 55 54 52 48 44 43
52 52 51 49 47 46 46 46 46 45 45 46 46 47 47 48 49 50 51 52 52 51 50 49 49 49 48 48 47 49 51 54 56 57 57 56 55 53 49 46 44 44
50 50 50 49 48 48 48 48 48 47 47 47 47 48 49 50 51 51 52 53 52 51 50 49 49 48 47 47 49 52 55 58 59 59 57 56 54 50 47 45 44 44
48 49 49 49 49 49 49 49 49 48 48 48 49 49 50 50 50 50 50 49 49 48 47 47 47 48 48 50 54 57 59 60 60 58 57 54 50 47 45 45 44 44
46 48 49 50 50 50 51 51 50 50 50 50 51 51 51 51 50 49 48 47 47 47 47 47 49 50 52 55 56 58 59 58 58 56 54 50 46 45 45 45 44 45
48 49 50 50 50 51 51 51 52 52 52 52 53 53 53 53 53 53 52 51 51 51 51 51 52 53 54 55 55 56 56 55 54 52 49 46 45 45 46 45 45 46
51 51 51 51 51 51 52 52 52 53 53 53 53 53 54 55 55 55 54 54 53 53 53 53 53 54 54 54 54 54 53 52 50 48 46 45 46 46 46 46 47 49
51 52 52 52 52 52 53 53 53 53 53 53 53 54 55 55 56 56 55 55 55 54 54 54 54 54 54 53 52 51 49 48 46 46 45 46 46 46 47 48 50 51
51 51 51 52 52 53 54 54 54 54 53 52 52 53 55 56 56 56 56 56 55 54 53 52 52 51 50 49 48 47 47 46 46 46 46 46 47 47 48 50 51 52
51 51 52 53 53 54 54 55 55 55 54 53 53 54 55 55 55 55 54 53 51 50 49 48 48 47 47 47 46 46 46 46 46 46 46 47 47 48 49 51 52 54
51 52 54 55 55 55 55 55 55 54 54 54 54 54 53 52 51 51 49 48 47 45 45 44 45 45 45 46 46 46 46 46 46 46 47 48 49 49 50 52 54 56
51 52 54 55 56 56 55 54 53 52 52 52 51 50 49 48 47 46 45 44 43 42 43 43 44 45 45 46 46 46 46 46 47 47 48 49 50 50 52 53 55 56
52 52 52 53 54 54 54 53 51 50 48 47 46 46 45 45 44 43 42 42 42 42 43 43 44 45 45 46 46 46 47 47 48 49 49 49 51 52 54 54 55 57
52 52 52 52 52 52 51 50 48 47 45 44 44 43 43 43 43 42 42 42 42 43 43 44 45 45 45 46 46 47 48 49 49 49 50 50 52 54 55 55 57 59
47 46 46 46 46 46 45 45 44 43 42 41 41 41 42 42 42 42 43 43 43 44 44 45 45 45 46 46 47 48 49 50 50 50 50 51 53 54 55 57 59 61
39 39 39 39 39 39 40 41 41 40 40 40 40 40 41 41 42 42 43 43 44 44 45 46 46 46 47 48 49 50 50 50 50 50 51 52 53 55 57 60 62 63
38 39 40 40 40 40 41 42 42 42 42 42 43 43 43 43 43 44 44 44 45 46 46 47 47 47 48 49 50 50 50 49 49 50 52 53 54 57 59 62 64 65
39 41 42 43 43 43 44 45 45 45 46 46 46 46 45 45 45 45 45 45 46 47 47 48 48 48 49 49 50 49 49 49 50 52 53 55 56 59 61 63 66 67
37 40 42 43 44 44 45 45 46 46 47 47 47 47 47 47 46 46 46 46 46 47 48 48 48 48 49 49 49 49 50 51 52 54 55 57 59 61 63 65 67 68
37 39 41 42 42 43 43 43 43 45 45 45 45 46 47 47 46 45 45 46 46 47 48 48 49 49 49 49 49 50 51 53 54 55 57 59 61 63 66 67 68 69
38 40 42 42 42 42 41 40 40 41 42 43 45 46 46 46 45 45 45 46 47 48 49 49 49 49 49 50 50 51 53 54 55 57 59 61 64 66 68 69 69 70
38 39 40 39 38 37 36 38 41 42 43 44 46 48 48 47 46 47 47 48 49 50 51 50 50 50 50 51 52 53 55 56 57 59 61 64 66 68 68 69 69 70
Wind_Direction
252 254 256 258 257 256 256 259 262 265 267 269 272 276 280 283 285 287 289 290 292 293 294 295 297 298 298 297 298 299 300 302 303 302 301 301 302 303 305 307 310 311
252 254 256 256 255 255 256 260 263 266 269 270 271 274 277 280 283 286 288 290 292 293 294 295 296 297 297 297 298 299 299 301 301 300 299 299 300 301 304 307 309 308
250 253 254 255 256 256 258 261 265 268 271 272 273 275 277 280 282 285 288 291 294 295 295 295 296 296 296 297 298 298 298 299 299 298 297 298 299 302 305 307 307 305
249 251 252 254 256 259 261 263 266 268 271 273 275 278 280 281 284 286 289 292 294 296 296 296 295 296 296 297 297 297 298 297 296 295 296 298 300 302 305 306 304 303
247 249 251 254 256 259 261 263 265 267 269 272 275 278 280 282 284 287 290 293 294 295 295 295 295 295 296 297 297 296 294 293 292 293 295 298 300 303 305 305 303 302
247 248 251 254 256 258 260 262 264 266 269 272 275 278 280 282 285 288 291 292 292 293 293 293 294 296 296 296 293 290 288 289 290 292 295 298 301 304 305 303 302 302
247 249 251 253 254 256 258 261 263 267 270 274 276 279 281 283 286 289 290 291 291 292 292 293 293 293 292 289 285 284 285 288 290 292 295 298 301 303 302 301 302 302
248 249 250 252 253 255 257 260 263 266 270 273 276 278 280 283 286 288 288 288 288 289 289 289 287 285 283 282 282 284 286 288 290 293 295 299 301 301 300 300 301 302
247 249 251 253 254 256 258 261 263 266 269 272 274 276 278 281 283 283 282 282 282 283 283 283 282 281 281 282 283 286 288 289 292 294 296 299 300 299 299 300 300 302
246 249 252 254 256 258 260 263 265 267 269 271 274 276 278 279 280 280 281 281 281 282 283 283 283 283 284 286 287 288 290 291 293 295 297 298 298 298 299 299 300 302
246 250 253 255 258 260 263 265 266 268 270 271 274 276 277 278 278 279 280 281 281 282 283 284 285 286 287 289 290 291 292 293 294 296 297 297 297 298 298 298 300 303
248 251 254 256 259 261 263 265 266 268 269 271 273 275 275 276 277 278 279 280 281 282 283 284 286 287 289 290 291 292 293 294 295 296 296 297 298 298 298 299 301 303
249 252 254 257 260 262 263 264 265 267 269 271 273 273 274 275 277 278 279 280 281 282 284 286 288 289 290 291 292 292 293 294 295 296 297 298 298 298 299 300 302 304
249 252 254 257 259 261 263 264 265 267 268 270 271 273 275 276 277 278 279 280 282 284 287 288 290 290 291 292 292 293 294 295 296 297 297 298 298 298 300 302 304 305
252 253 255 257 259 262 264 265 267 268 270 271 272 274 276 277 278 279 280 282 284 286 288 289 290 291 292 293 294 295 295 296 297 297 298 298 298 299 301 303 305 306
255 256 257 258 260 263 265 267 269 270 271 272 274 276 277 278 280 281 282 284 286 288 289 290 291 292 293 295 295 296 296 296 296 297 298 299 299 300 303 304 305 306
257 258 260 261 263 265 266 268 270 271 272 273 275 276 278 279 281 283 284 285 287 288 289 290 292 293 295 295 295 295 295 296 297 298 298 299 301 302 304 304 305 309
259 261 263 264 265 266 267 268 269 270 272 274 275 277 278 280 281 283 285 286 287 288 290 291 293 294 294 294 294 295 295 296 297 298 299 301 302 303 304 306 310 314
260 261 262 263 264 265 267 268 269 271 273 275 276 277 279 280 282 283 285 286 287 289 290 292 294 294 294 294 295 296 296 297 298 299 301 302 303 304 307 311 314 316
259 260 260 261 264 266 268 269 271 273 275 276 278 279 280 281 283 284 285 286 288 291 293 294 295 296 295 295 295 296 297 298 300 301 302 303 305 308 312 314 315 315
261 262 263 263 265 268 269 271 273 275 276 278 280 281 282 283 283 285 286 288 291 293 295 296 296 296 295 294 295 297 298 300 301 302 303 306 309 311 313 313 313 313
263 263 263 264 266 268 271 272 274 276 277 278 280 282 283 283 284 286 288 290 293 294 295 295 295 295 295 295 297 299 300 302 303 304 306 309 310 311 311 312 312 312
263 264 265 267 269 271 273 275 276 277 277 278 280 281 282 283 285 287 289 291 292 293 294 294 295 295 296 297 299 301 303 304 305 306 307 308 309 309 309 310 311 311
265 268 269 271 272 273 276 277 277 278 279 280 281 281 282 283 285 288 290 291 292 293 294 295 296 297 298 299 301 303 304 304 305 306 307 307 308 308 308 309 310 311
265 267 269 271 274 276 276 275 273 274 278 280 281 282 283 285 287 289 290 292 293 294 295 297 299 299 300 301 303 303 303 304 305 305 306 306 307 307 308 309 309 310
259 261 265 268 270 271 271 269 270 274 277 279 280 282 284 287 288 289 292 294 295 297 298 299 300 300 300 301 302 302 302 303 303 304 304 305 306 307 308 308 309 310
Height
10710 10711 10713 10715 10717 10717 10718 10718 10719 10719 10720 10721 10721 10720 10720 10720 10721 10722 10722 10722 10722 10722 10722 10721 10720 10719 10717 10716 10715 10713 10711 10710 10708 10707 10705 10703 10701 10699 10697 10694 10691 10689
10705 10706 10708 10710 10712 10712 10713 10714 10715 10716 10716 10717 10717 10716 10717 10717 10716 10717 10717 10717 10718 10718 10717 10716 10715 10714 10713 10712 10710 10708 10707 10706 10704 10703 10701 10699 10697 10695 10693 10690 10687 10685
10700 10702 10704 10706 10707 10708 10709 10710 10711 10712 10712 10712 10712 10713 10712 10712 10712 10712 10712 10713 10713 10713 10712 10711 10710 10709 10708 10707 10706 10704 10703 10701 10700 10698 10696 10694 10692 10690 10688 10686 10683 10680
10695 10697 10699 10701 10703 10704 10705 10706 10707 10708 10708 10708 10708 10708 10708 10708 10708 10708 10708 10708 10708 10708 10707 10707 10706 10705 10704 10703 10701 10700 10698 10697 10695 10694 10692 10690 10687 10686 10683 10681 10678 10676
10691 10693 10695 10697 10699 10701 10702 10702 10703 10703 10703 10703 10704 10704 10704 10703 10703 10703 10704 10704 10703 10703 10703 10702 10701 10700 10699 10698 10697 10695 10694 10693 10691 10689 10687 10685 10683 10681 10679 10676 10674 10671
10687 10689 10691 10693 10695 10697 10697 10698 10698 10699 10699 10699 10699 10699 10699 10699 10698 10699 10699 10699 10698 10698 10698 10697 10697 10696 10695 10693 10692 10691 10690 10688 10686 10684 10682 10680 10678 10676 10673 10671 10669 10666
10682 10684 10686 10688 10690 10692 10693 10693 10693 10694 10694 10694 10694 10694 10694 10694 10694 10694 10694 10693 10693 10693 10693 10692 10691 10690 10690 10689 10688 10687 10685 10683 10682 10680 10677 10675 10673 10671 10669 10667 10664 10662
10677 10679 10681 10684 10686 10687 10688 10688 10688 10689 10689 10690 10690 10689 10689 10689 10690 10690 10689 10688 10688 10688 10688 10688 10687 10686 10685 10685 10684 10682 10680 10678 10677 10675 10673 10671 10669 10666 10664 10662 10660 10657
10672 10674 10676 10678 10680 10682 10683 10683 10684 10684 10684 10684 10685 10685 10685 10686 10686 10685 10685 10685 10685 10685 10685 10684 10683 10682 10682 10681 10679 10677 10675 10674 10672 10670 10668 10666 10664 10662 10660 10658 10655 10653
10667 10669 10671 10673 10675 10677 10678 10679 10679 10679 10679 10679 10680 10680 10682 10682 10681 10681 10681 10682 10681 10681 10681 10681 10679 10678 10677 10676 10674 10672 10670 10668 10667 10665 10663 10661 10659 10657 10655 10653 10651 10648
10662 10664 10666 10668 10670 10672 10673 10674 10674 10674 10674 10674 10675 10676 10677 10676 10676 10676 10677 10677 10677 10677 10676 10676 10674 10673 10672 10671 10669 10667 10665 10663 10661 10660 10658 10656 10654 10652 10649 10647 10645 10643
10658 10659 10662 10664 10665 10667 10668 10669 10668 10668 10669 10670 10671 10671 10671 10671 10671 10672 10672 10672 10672 10672 10671 10670 10669 10667 10667 10665 10664 10662 10660 10658 10656 10654 10653 10651 10649 10647 10644 10642 10640 10637
10654 10655 10657 10659 10661 10662 10663 10663 10664 10664 10665 10667 10666 10665 10665 10666 10667 10667 10667 10667 10667 10666 10665 10664 10663 10662 10661 10660 10658 10657 10654 10653 10651 10649 10647 10646 10644 10641 10639 10636 10633 10631
10650 10651 10653 10654 10655 10656 10658 10658 10659 10660 10661 10662 10661 10660 10661 10662 10662 10662 10662 10662 10661 10661 10660 10659 10658 10657 10656 10655 10653 10651 10649 10648 10646 10644 10642 10640 10638 10636 10633 10630 10627 10625
10646 10647 10649 10649 10650 10652 10653 10654 10654 10656 10656 10656 10655 10656 10657 10657 10657 10657 10657 10657 10656 10655 10654 10653 10652 10651 10650 10649 10648 10646 10644 10642 10641 10639 10637 10634 10632 10630 10628 10625 10621 10619
10641 10643 10644 10645 10646 10648 10648 10649 10650 10651 10651 10650 10651 10651 10652 10652 10652 10652 10652 10651 10651 10650 10649 10648 10647 10646 10645 10644 10642 10641 10639 10637 10635 10634 10631 10629 10626 10624 10622 10619 10616 10613
10637 10639 10640 10641 10642 10643 10643 10644 10645 10645 10645 10645 10646 10646 10646 10646 10646 10646 10646 10646 10645 10645 10644 10643 10642 10642 10640 10638 10637 10635 10634 10632 10630 10628 10626 10623 10620 10617 10615 10613 10610 10607
10633 10635 10636 10636 10637 10638 10638 10639 10639 10639 10640 10640 10641 10641 10641 10641 10641 10641 10641 10641 10640 10639 10639 10638 10638 10636 10635 10633 10631 10630 10628 10626 10625 10623 10620 10618 10614 10611 10609 10607 10604 10600
10629 10630 10631 10631 10632 10632 10633 10633 10633 10634 10635 10635 10636 10636 10636 10636 10636 10636 10636 10635 10635 10634 10634 10633 10633 10631 10629 10627 10625 10624 10622 10621 10619 10617 10615 10612 10609 10605 10602 10600 10597 10594
10625 10626 10626 10626 10627 10627 10628 10628 10628 10629 10630 10630 10630 10630 10631 10631 10631 10630 10630 10630 10629 10629 10629 10628 10627 10625 10623 10621 10620 10618 10617 10615 10613 10611 10609 10606 10603 10600 10596 10593 10590 10587
10621 10621 10622 10622 10623 10623 10622 10622 10623 10624 10625 10625 10625 10625 10626 10626 10625 10625 10624 10624 10624 10623 10622 10622 10621 10620 10618 10616 10614 10613 10612 10610 10608 10605 10603 10600 10597 10594 10591 10587 10584 10581
10616 10616 10617 10618 10618 10618 10617 10618 10619 10619 10618 10619 10620 10620 10621 10620 10619 10619 10619 10618 10618 10617 10617 10616 10616 10614 10612 10610 10609 10608 10606 10603 10601 10599 10596 10594 10591 10589 10586 10582 10579 10575
10611 10611 10612 10612 10612 10612 10612 10613 10613 10612 10612 10614 10615 10615 10615 10614 10614 10614 10613 10613 10612 10612 10611 10611 10610 10609 10607 10604 10603 10601 10599 10597 10595 10592 10590 10588 10586 10583 10580 10577 10574 10570
10606 10606 10606 10607 10607 10608 10608 10608 10606 10606 10606 10608 10609 10609 10609 10609 10609 10609 10608 10607 10607 10606 10606 10606 10605 10603 10601 10598 10597 10595 10593 10591 10589 10587 10585 10582 10580 10577 10574 10571 10568 10564
10601 10600 10600 10602 10603 10603 10603 10602 10601 10601 10602 10602 10603 10603 10603 10604 10604 10603 10603 10602 10601 10600 10600 10599 10598 10596 10594 10592 10591 10589 10587 10585 10583 10581 10579 10577 10574 10571 10568 10565 10562 10558
10597 10595 10596 10598 10599 10598 10598 10596 10595 10597 10598 10597 10597 10597 10599 10599 10598 10597 10597 10596 10595 10594 10593 10593 10592 10590 10588 10587 10585 10583 10581 10580 10578 10576 10573 10571 10568 10565 10562 10558 10555 10551